GW0525 Weather Reports


Display with metric or nautical units.
time (UTC)temp
F
wind
direction
speed
MPH
gust
MPH
rain 1hr
in
rain 24hr
in
rain mn
in
humidity
%
barometer
mb
20260503043111 49 0 0.0 0.0 0.00 0.00 0.00 45 1015.2
20260503041558 50 0 2.0 6.0 0.00 0.00 0.00 43 1015.3
20260503034600 50 347 5.0 7.0 0.00 0.00 0.00 43 1015.2
20260503033140 51 350 4.0 7.0 0.00 0.00 0.00 43 1015.3
20260503031602 53 45 6.0 8.0 0.00 0.00 0.00 40 1015.2
20260503030113 53 32 5.0 6.0 0.00 0.00 0.00 39 1015.0
20260503024624 53 28 5.0 8.0 0.00 0.00 0.00 39 1015.0
20260503023113 55 34 5.0 9.0 0.00 0.00 0.00 37 1015.0
20260503021605 56 19 7.0 12.0 0.00 0.00 0.00 36 1014.8
20260503020059 57 17 11.0 19.0 0.00 0.00 0.00 35 1014.7
20260503014605 59 37 16.0 23.0 0.00 0.00 0.00 32 1014.5
20260503013100 60 23 20.0 25.0 0.00 0.00 0.00 31 1014.5
20260503011606 61 45 23.0 27.0 0.00 0.00 0.00 31 1014.5
20260503004559 63 14 18.0 30.0 0.00 0.00 0.00 29 1014.5
20260503003059 64 22 19.0 30.0 0.00 0.00 0.00 29 1014.4
20260503001603 64 11 22.0 32.0 0.00 0.00 0.00 28 1014.5
20260503000109 64 344 22.0 28.0 0.00 0.00 0.00 27 1014.6
20260502234615 64 9 18.0 29.0 0.00 0.00 0.00 28 1014.5
20260502233110 64 19 20.0 29.0 0.00 0.00 0.00 27 1014.5
20260502231612 65 346 26.0 31.0 0.00 0.00 0.00 28 1014.6
20260502230100 66 329 21.0 32.0 0.00 0.00 0.00 28 1014.5
20260502224600 66 14 22.0 30.0 0.00 0.00 0.00 29 1014.5
20260502223059 66 337 20.0 33.0 0.00 0.00 0.00 29 1014.5
20260502221605 66 13 26.0 33.0 0.00 0.00 0.00 28 1014.6
20260502220105 65 320 25.0 33.0 0.00 0.00 0.00 29 1014.6
20260502214609 65 337 25.0 32.0 0.00 0.00 0.00 29 1014.9
20260502213059 65 334 17.0 35.0 0.00 0.00 0.00 30 1014.9
20260502211608 66 30 18.0 28.0 0.00 0.00 0.00 30 1014.9
20260502210109 65 336 27.0 35.0 0.00 0.00 0.00 30 1015.0
20260502204559 66 16 22.0 35.0 0.00 0.00 0.00 29 1014.8
20260502203112 65 12 28.0 36.0 0.00 0.00 0.00 30 1014.9
20260502201601 66 23 21.0 37.0 0.00 0.00 0.00 31 1014.9
20260502200101 65 338 17.0 34.0 0.00 0.00 0.00 33 1015.0
20260502194559 66 338 17.0 32.0 0.00 0.00 0.00 31 1015.0
20260502193100 66 340 19.0 25.0 0.00 0.00 0.00 32 1014.9
20260502191558 65 11 18.0 32.0 0.00 0.00 0.00 32 1015.0
20260502190101 65 22 24.0 36.0 0.00 0.00 0.00 30 1015.0
20260502184600 65 22 25.0 34.0 0.00 0.00 0.00 31 1014.9
20260502183101 65 29 24.0 33.0 0.00 0.00 0.00 33 1015.0
20260502181600 64 12 23.0 33.0 0.00 0.00 0.00 34 1014.9
20260502163104 63 28 21.0 31.0 0.00 0.00 0.00 36 1014.7
20260502161559 62 28 23.0 29.0 0.00 0.00 0.00 37 1014.6
20260502160104 62 333 22.0 26.0 0.00 0.00 0.00 38 1014.6
20260502151612 59 45 19.0 27.0 0.00 0.00 0.00 40 1014.5
20260502150110 60 42 19.0 25.0 0.00 0.00 0.00 39 1014.3
20260502123102 51 283 15.0 19.0 0.00 0.00 0.00 46 1013.6
20260502121603 46 288 8.0 14.0 0.00 0.00 0.00 55 1013.8
20260502120114 44 325 10.0 13.0 0.00 0.00 0.00 58 1013.7
20260502114603 44 321 10.0 14.0 0.00 0.00 0.00 57 1013.6
20260502113100 46 327 12.0 14.0 0.00 0.00 0.00 53 1013.8
20260502111603 48 5 7.0 14.0 0.00 0.00 0.00 48 1013.9
20260502110100 46 349 10.0 16.0 0.00 0.00 0.00 51 1013.9
20260502104600 47 213 13.0 16.0 0.00 0.00 0.00 49 1013.3
20260502103114 46 212 10.0 14.0 0.00 0.00 0.00 50 1013.5
20260502101559 45 222 10.0 12.0 0.00 0.00 0.00 52 1013.5
20260502100124 45 221 10.0 14.0 0.00 0.00 0.00 52 1013.6
20260502090112 45 220 13.0 16.0 0.00 0.00 0.00 52 1013.8
20260502064608 45 235 8.0 12.0 0.00 0.00 0.00 45 1015.0
20260502063101 46 217 11.0 17.0 0.00 0.00 0.00 44 1015.2
20260502061605 46 217 13.0 15.0 0.00 0.00 0.00 44 1015.2
20260502054600 45 242 5.0 8.0 0.00 0.00 0.00 45 1015.4
20260502053058 45 232 9.0 12.0 0.00 0.00 0.00 45 1015.6
20260502051702 46 230 6.0 12.0 0.00 0.00 0.00 44 1015.7
20260502044609 47 202 6.0 15.0 0.00 0.00 0.00 41 1016.0